This demonstration page uses our WeatherBlox Daily Observations layout. Learn more.

Left ArrowRight Arrow

41.86663, -103.66717

Hourly Observations for January 29, 2021

Temp ( °F °C ) Dew Point ( °F °C ) Humidity (%) Winds ( mph kmh ) Pressure ( in mb ) Visibility ( mi km ) Precip ( " mm )
12:53 am 00:53 Clear 22 -5.6 17 -8.3 82 82 E 5 7 29.99 1016 8 13 0.00 0.00
1:53 am 01:53 Clear 21 -6.1 16 -8.9 81 81 N 3 6 29.97 1015 10 16 0.00 0.00
2:53 am 02:53 Clear 19 -7.2 14 -10 81 81 NW 3 6 29.98 1015 8 13 0.00 0.00
3:53 am 03:53 Clear 21 -6.1 16 -8.9 81 81 Calm 29.96 1015 9 14 0.00 0.00
4:53 am 04:53 Clear 18 -7.8 13 -10.6 81 81 NNE 5 7 29.97 1015 9 14 0.00 0.00
5:53 am 05:53 Clear 19 -7.2 14 -10 81 81 NNW 6 9 29.98 1015 10 16 0.00 0.00
6:53 am 06:53 Clear 17 -8.3 12 -11.1 80 80 Calm 29.99 1016 9 14 0.00 0.00
7:53 am 07:53 Sunny 19 -7.2 14 -10 81 81 NW 6 9 29.99 1016 7 11 0.00 0.00
8:53 am 08:53 Sunny 24 -4.4 19 -7.2 81 81 Calm 29.97 1015 8 13 0.00 0.00
9:53 am 09:53 Sunny 26 -3.3 21 -6.1 81 81 Calm 29.96 1014 9 14 0.00 0.00
10:53 am 10:53 Partly Cloudy 31 -0.6 24 -4.4 76 76 NNE 8 13 29.91 1013 9 14 0.00 0.00
11:53 am 11:53 Sunny 35 1.7 25 -3.9 67 67 W 5 7 29.86 1011 10 16 0.00 0.00
12:53 pm 12:53 Sunny 41 5 25 -3.9 53 53 Calm 29.79 1009 10 16 0.00 0.00
1:53 pm 13:53 Sunny 47 8.3 25 -3.9 42 42 S 3 6 29.74 1007 10 16 0.00 0.00
2:53 pm 14:53 Sunny 51 10.6 26 -3.3 38 38 Calm 29.71 1006 10 16 0.00 0.00
3:53 pm 15:53 Sunny 52 11.1 27 -2.8 38 38 ESE 6 9 29.69 1005 10 16 0.00 0.00
4:53 pm 16:53 Sunny 42 5.6 26 -3.3 53 53 E 6 9 29.72 1007 10 16 0.00 0.00
5:53 pm 17:53 Clear 38 3.3 24 -4.4 57 57 NE 7 11 29.72 1006 10 16 0.00 0.00
6:53 pm 18:53 Clear 37 2.8 25 -3.9 62 62 NE 6 9 29.72 1006 10 16 0.00 0.00
7:53 pm 19:53 Clear 36 2.2 25 -3.9 64 64 Calm 29.69 1005 10 16 0.00 0.00
8:53 pm 20:53 Clear 33 0.6 25 -3.9 72 72 Calm 29.67 1005 10 16 0.00 0.00
9:53 pm 21:53 Clear 32 0 24 -4.4 73 73 N 8 13 29.66 1004 10 16 0.00 0.00
10:53 pm 22:53 Mostly Clear 33 0.6 25 -3.9 72 72 NW 7 11 29.64 1004 10 16 0.00 0.00
11:53 pm 23:53 Partly Cloudy 36 2.2 25 -3.9 64 64 W 6 9 29.62 1003 10 16 0.00 0.00

Powered by AerisWeather